This is the latest recevied weather packets stored in our database for station/object K0APR. If no packets are shown the sender has not sent any weather packets the latest 10 day(s).
| Time | Temp. | Humidity | Pressure | Rain* | Wind** | Luminosity | Snow |
|---|---|---|---|---|---|---|---|
| 1777407867 | 10.56° C | 54% | 1017.9 hPa | 0 mm | - | 272 W/m² | - |
| 1777407566 | 10° C | 53% | 1017.9 hPa | 0 mm | - | 390 W/m² | - |
| 1777407265 | 10° C | 53% | 1017.9 hPa | 0 mm | - | 307 W/m² | - |
| 1777406965 | 10° C | 52% | 1017.9 hPa | 0 mm | - | 347 W/m² | - |
| 1777406659 | 10° C | 54% | 1017.5 hPa | 0 mm | - | 384 W/m² | - |
| 1777406356 | 10° C | 54% | 1017.9 hPa | 0 mm | - | 359 W/m² | - |
| 1777406055 | 9.44° C | 55% | 1017.9 hPa | 0 mm | - | 310 W/m² | - |
| 1777405752 | 10° C | 56% | 1017.5 hPa | 0 mm | - | 324 W/m² | - |
| 1777405448 | 10° C | 54% | 1017.5 hPa | 0 mm | - | 322 W/m² | - |
| 1777405146 | 10° C | 56% | 1017.5 hPa | 0 mm | - | 331 W/m² | - |
| 1777404844 | 9.44° C | 55% | 1017.9 hPa | 0 mm | - | 366 W/m² | - |
| 1777404541 | 9.44° C | 55% | 1017.9 hPa | 0 mm | - | 298 W/m² | - |
| 1777404236 | 9.44° C | 56% | 1017.9 hPa | 0 mm | - | 285 W/m² | - |
| 1777403933 | 9.44° C | 56% | 1017.9 hPa | 0 mm | - | 300 W/m² | - |
| 1777403632 | 9.44° C | 55% | 1017.9 hPa | 0 mm | - | 320 W/m² | - |
| 1777403327 | 9.44° C | 56% | 1018.3 hPa | 0 mm | - | 322 W/m² | - |
| 1777403027 | 9.44° C | 55% | 1018.3 hPa | 0 mm | - | 329 W/m² | - |
| 1777402723 | 9.44° C | 58% | 1017.9 hPa | 0 mm | - | 373 W/m² | - |
| 1777402418 | 9.44° C | 55% | 1018.3 hPa | 0 mm | - | 322 W/m² | - |
| 1777402116 | 9.44° C | 56% | 1018.3 hPa | 0 mm | - | 370 W/m² | - |
| 1777401812 | 9.44° C | 54% | 1018.3 hPa | 0 mm | - | 426 W/m² | - |
| 1777401511 | 9.44° C | 56% | 1018.3 hPa | 0 mm | - | 392 W/m² | - |
| 1777401207 | 10° C | 58% | 1018.3 hPa | 0 mm | - | 364 W/m² | - |
| 1777400903 | 10° C | 54% | 1018.3 hPa | 0 mm | - | 761 W/m² | - |
| 1777400599 | 10° C | 54% | 1017.9 hPa | 0 mm | - | 745 W/m² | - |
* Rain latest hour (hover to see other rain measurements)
** Current wind speed in m/s (hover to see current wind gust speed)